Погода Кокшетау

Погода Кокшетау : погода сейчас, прогноз погоды и архив. Всё, что Вы хотите узнать о погоде Кокшетау!

Хотите узнать прогноз погоды в Кокчетаве? Тогда Вам сюда: Погода в Кокчетаве

Поиск расширенной информации на нашем сайте:

Другие новости

Новости СМИ2

Главная страница сайта

Новости сайта

03.07.2017

Напоминаем, что на нашем специализированном сайте Метеоцентр.Азия вы можете получить высокодетализированные автоматические прогнозы погоды по пунктам России, СНГ и мира в авиационном формате (включающие направление и скорость ветра, видимость, явления погоды, количество и форму облачности, нижнюю и верхнюю границу облачности).


Погода Кокшетау - сегодня

Время (UTC), дата Ветер
(°,м/с) 
Видим.   Явления Облачность Т
(°С)
Тd
(°С)
f(%) Тe
(°С)
Pmin
(гПа)
dP
(гПа)
Po
(мм)
O2
(г/м3)
Тmin Tmax R s Состояние
почвы
09 11.02.18 090 (В) 20000 м    10/0 средняя, верхняя 
[Ac cast|Ci fib]
-14 -17 78 -16  1028.9  -0.5  749  319           
15 11.02.18 090 (В) н/о    6/0 средняя, верхняя 
[Ac lent|Ci fib]
-17.8 -19 90 -20  1028.3  -0.2  748  324    -13.5       
21 11.02.18 тихо ()   н/о  {снег}  10/10 300 м 
[St]
-16.7 -17.7 92 -17  1026.4  -0.5  747  322           
03 12.02.18 080 (В) 10 км    10/10 1000 м 
[Sc]
-16.8 -17.8 92 -19  1026  -0.1  746  322      0.0  16  равномерный
сухой снег
100% 
09 12.02.18 090 (В) 20000 м  {снег}  10/0 верхняя 
[Ci fib]
-12 -14.9 79 -14  1024.9  -0.5  746  316           
18 12.02.18 тихо ()   н/о    ясно 
-20.5 -21.7 90 -21  1025.7  -0.2  746  327    -11.5  0.0     
21 12.02.18 тихо ()   н/о    ясно 
-23.1 -24.5 88 -23  1025.1  -0.9  745  330           
00 13.02.18 тихо ()   н/о    ясно 
-25.5 -27.2 86 -26  1025.4  745  333           
06 13.02.18 020 (С) 20000 м    10/0 верхняя 
[Ci fib]
-20.6 -22.2 87 -23  1024.1  745  326  -25.8         
09 13.02.18 040 (СВ) 10 км    10/0 верхняя 
[Ci fib]
-17.2 -19.5 82 -21  1022.4  1.3  744  321           
21 13.02.18 040 (СВ) н/о  слаб. снег  10/0 средняя 
[As op]
-19.9 -21.4 88 -24  1019.1  -0.7  741  324           
03 14.02.18 360 (С) 10 км  слаб. снег  10/0 средняя 
[As op]
-20.3 -21.7 89 -21  1018.4  0.3  741  324      0.2  17  равномерный
сухой снег
100% 
09 14.02.18 340 (С) 20000 м  слаб. снег  10/1 300 м средняя 
[Frnb|As op]
-16.6 -19.1 81 -19  1017.5  -0.3  740  319           
21 14.02.18 250 (З) н/о  слаб. снег  10/0 средняя 
[As op]
-22.3 -23.4 91 -23  1019.5  0.4  741  327           
03 15.02.18 280 (З) 10 км  слаб. снег  10/0 средняя 
[As op]
-16.6 -17.6 92 -20  1020.6  1.3  742  320      0.3  18  равномерный
сухой снег
100% 
09 15.02.18 290 (З) 10 км  слаб. снег  10/0 средняя 
[As op]
-11.9 -14.1 84 -17  1023.7  1.9  745  315           
21 15.02.18 280 (З) н/о    ясно 
-21.3 -22.4 91 -24  1033.6  1.6  752  330           
00 16.02.18 270 (З) н/о    ясно 
-22.7 -23.9 90 -23  1035.6  1.7  753  333           
06 16.02.18 260 (З) 20000 м    3/0 верхняя 
[Cs]
-15.4 -17.9 81 -18  1038  1.3  755  324  -24.3         
09 16.02.18 280 (З) 20000 м    3/0 верхняя 
[Cc]
-10.3 -14.7 70 -14  1038.3  0.9  756  318           
12 16.02.18 тихо ()   20000 м    6/0 средняя 
[Ac und]
-12.3 -15.8 75 -12  1039  0.4  756  320           
21 16.02.18 тихо ()   н/о  слаб. снег  10/8 600 м средняя 
[Sc|Ac trans]
-11 -12 92 -11  1040.3  0.2  757  319           
03 17.02.18 220 (ЮЗ) 10 км  слаб. снег  10/0 средняя 
[As op]
-10.5 -11.4 93 -10  1041.1  0.4  758  319      0.4  20  равномерный
сухой снег
100% 
09 17.02.18 270 (З) 20000 м    3/0 верхняя 
[Ci fib]
-9.6 -13.7 72 -11  1041.3  -0.1  758  318           
12 17.02.18 220 (ЮЗ) 20000 м    ясно 
-11 -14.7 74 -11  1040.8  -0.6  758  319           
Время (UTC), дата Ветер
(°,м/с) 
Видим.   Явления Облачность Т
(°С)
Тd
(°С)
f(%) Тe
(°С)
Pmin
(гПа)
dP
(гПа)
Po
(мм)
O2
(г/м3)
Тmin Tmax R s Состояние
почвы

Для получения пояснительной информации подведите курсор к названию столбца.

ПОГОДА Кокшетау - архив

Всё, что Вы хотите узнать о погоде Кокшетау - удобно и подробно!

Выберите нужную дату (начиная с 1 января 2015* года) и нажмите кнопку "Найти".
Будут отображены архивные сводки погоды по пункту Кокшетау, начиная с указанной даты.


Отображать данные в формате CSV (для использования в таблицах Excel)


Внимание! Наш архив погоды предназначен исключительно для личного некоммерческого использования в познавательных целях. Если Вам необходимы официальные справки о состоянии погоды (для производственных, юридических, коммерческих и т.п. целей), обращайтесь в органы Росгидромета.

*Примечание: данная дата относится к архиву по метеостанциям СССР (Россия, СНГ, Балтия).
Архив по метеостанциям Зарубежной Европы и Азии (кроме Китая) хранится 10 дней, по другим регионам земного шара (Китай, Африка, Америка, Австралия, Океания) - 1 день.

Кокшетау - район местоположения метеостанции


Название, широта, долгота, высота метеостанции:
Кокшетау 53.3°ш. 69.4°д. 229 м над ур. моря [Казахстан]

Дополнительная информация

В oтличие oт бoльшинства пoгoдных сайтoв мы публикуем пoдрoбную метеoинфoрмацию в детальнoм прoфессиoнальнoм фoрмате.

Характеристики температуры и влажнoсти вoздуха измеряются на высoте 2 м в тени вдали oт зданий и деревьев.
Скoрoсть ветра измеряется на высoте 10 м (на урoвне рoста челoвека скoрoсть ветра ниже в 1.5-2 раза). Если метеoстанция нахoдится в гoрoде или в лесу, тo скoрoсть ветра занижена на 2-4 м/с пo сравнению с oткрытым местoм. Скoрoсть ветра над акватoриями крупных рек и oзёр, а также на вершинах хoлмoв на 2-5 м/с выше, чем в oбычных услoвиях.
Атмoсфернoе давление в разных тoчках местнoсти мoжет значительнo oтличаться oт давления на метеoстанции, в зависимoсти oт услoвий рельефа (при пoдъёме на 10 м давление пoнижается примернo на 1 мм рт.ст.).